Weather History for KCFE - April, 2013

Change the Weather History Date:

Friday, April 26, 2013

  Actual Average (KSTC) Record (KSTC)
Temperature  
Mean Temperature 57 °F 50 °F  
Max Temperature 69 °F 62 °F 84 °F (1970)
Min Temperature 44 °F 37 °F 22 °F (1907)
Degree Days  
Heating Degree Days 8 16  
Month to date heating degree days 560  
Since 1 July heating degree days 8110  
Cooling Degree Days 0 0  
Month to date cooling degree days 0  
Year to date cooling degree days 0  
Growing Degree Days 7 (Base 50)    
Moisture  
Dew Point 36 °F    
Average Humidity 50    
Maximum Humidity 71    
Minimum Humidity 26    
Precipitation  
Precipitation 0.00 in 0.10 in 2.47 in (1984)
Month to date precipitation 2.16  
Year to date precipitation 4.95  
Snow  
Snow 0.00 in 0.10 in 1.50 in (2008)
Month to date snowfall 2.9  
Since 1 July snowfall 45.6  
Snow Depth -    
Sea Level Pressure  
Sea Level Pressure 30.03 in    
Wind  
Wind Speed 7 mph (SSW)    
Max Wind Speed 14 mph    
Max Gust Speed 22 mph    
Visibility 10 miles    
Events      
T = Trace of Precipitation, MM = Missing Value Source: NWS Daily Summary

Daily Weather History Graph

Daily Weather History Graph

Search for Another Location

Airport or City:

Trip Planner

Search our weather history database for the weather conditions in past years. The results will help you decide how hot, cold, wet, or windy it might be!

Date:

Astronomy

Apr. 26, 2013 Rise Set
Actual Time 6:11 AM CDT 8:15 PM CDT
Civil Twilight 5:39 AM CDT 8:47 PM CDT
Nautical Twilight 5:00 AM CDT 9:26 PM CDT
Astronomical Twilight 4:17 AM CDT 10:10 PM CDT
Moon 9:42 PM CDT (4/26) 6:37 AM CDT (4/26)
Length of Visible Light 15h 07m
Length of Day
14h 03m
Full, 99% of the Moon is Illuminated
Apr 26
Full
May 2
Last Quarter
May 9
New
May 17
First Quarter
May 24
Full

Hourly Weather History & Observations

Time (CDT) Temp. Windchill Dew Point Humidity Pressure Visibility Wind Dir Wind Speed Gust Speed Precip Events Conditions
12:14 AM 45.0 °F 39.7 °F 29.7 °F 55% 30.04 in 10.0 mi ESE 10.4 mph - N/A   Overcast
12:35 AM 45.5 °F 39.6 °F 29.3 °F 53% 30.02 in 10.0 mi ESE 12.7 mph 18.4 mph N/A   Overcast
12:54 AM 45.9 °F 40.8 °F 29.3 °F 52% 30.01 in 10.0 mi SE 10.4 mph 17.3 mph N/A   Scattered Clouds
1:14 AM 45.1 °F 38.8 °F 30.0 °F 55% 30.00 in 10.0 mi ESE 13.8 mph 18.4 mph N/A   Clear
1:35 AM 45.1 °F 40.3 °F 30.4 °F 56% 29.99 in 10.0 mi SE 9.2 mph 18.4 mph N/A   Scattered Clouds
2:14 AM 45.7 °F 39.8 °F 32.2 °F 59% 29.97 in 10.0 mi SE 12.7 mph - N/A   Scattered Clouds
2:35 AM 47.1 °F - 32.9 °F 58% 29.98 in 10.0 mi SSE 10.4 mph 21.9 mph N/A   Mostly Cloudy
2:54 AM 47.3 °F - 33.1 °F 58% 29.96 in 10.0 mi SSE 11.5 mph 21.9 mph N/A   Mostly Cloudy
3:14 AM 47.7 °F - 33.6 °F 58% 29.97 in 10.0 mi SSE 8.1 mph 17.3 mph N/A   Mostly Cloudy
3:35 AM 47.8 °F - 34.7 °F 60% 29.97 in 10.0 mi SE 5.8 mph - N/A   Overcast
3:54 AM 46.9 °F - 35.1 °F 63% 29.98 in 10.0 mi Calm Calm - N/A   Mostly Cloudy
4:14 AM 46.4 °F 43.5 °F 34.9 °F 64% 29.97 in 10.0 mi SE 5.8 mph - N/A   Scattered Clouds
4:35 AM 46.6 °F - 35.1 °F 64% 29.96 in 10.0 mi South 3.5 mph - N/A   Clear
4:54 AM 46.9 °F - 35.2 °F 64% 29.96 in 10.0 mi SSE 5.8 mph - N/A   Clear
5:14 AM 47.5 °F - 35.6 °F 63% 29.95 in 10.0 mi SE 9.2 mph 16.1 mph N/A   Clear
5:35 AM 46.4 °F 43.5 °F 35.6 °F 66% 29.95 in 10.0 mi SSE 5.8 mph - N/A   Clear
5:54 AM 46.2 °F 42.7 °F 35.8 °F 67% 29.94 in 10.0 mi SE 6.9 mph - N/A   Clear
6:14 AM 45.5 °F 42.5 °F 35.8 °F 69% 29.95 in 10.0 mi South 5.8 mph - N/A   Clear
6:35 AM 45.0 °F 41.8 °F 35.8 °F 70% 29.95 in 10.0 mi South 5.8 mph - N/A   Clear
6:54 AM 45.1 °F 42.8 °F 36.1 °F 71% 29.96 in 10.0 mi South 4.6 mph - N/A   Clear
7:14 AM 45.5 °F 43.2 °F 36.5 °F 71% 29.96 in 10.0 mi South 4.6 mph - N/A   Clear
7:35 AM 46.6 °F - 37.0 °F 69% 29.96 in 10.0 mi South 5.8 mph - N/A   Clear
7:54 AM 47.8 °F - 37.4 °F 67% 29.96 in 10.0 mi South 6.9 mph - N/A   Clear
8:14 AM 48.7 °F - 37.8 °F 66% 29.96 in 10.0 mi South 9.2 mph 16.1 mph N/A   Clear
8:35 AM 50.0 °F - 38.3 °F 64% 29.97 in 10.0 mi South 10.4 mph 17.3 mph N/A   Clear
8:54 AM 51.3 °F - 38.8 °F 63% 29.98 in 10.0 mi South 9.2 mph - N/A   Clear
9:14 AM 52.0 °F - 38.7 °F 60% 29.98 in 10.0 mi SSW 9.2 mph - N/A   Clear
9:35 AM 53.1 °F - 39.2 °F 59% 29.98 in 10.0 mi SSW 10.4 mph 16.1 mph N/A   Clear
9:54 AM 54.0 °F - 39.0 °F 57% 29.99 in 10.0 mi SSW 10.4 mph - N/A   Clear
10:14 AM 55.2 °F - 40.1 °F 57% 30.00 in 10.0 mi SSW 6.9 mph - N/A   Clear
10:35 AM 55.2 °F - 39.4 °F 55% 30.01 in 10.0 mi SW 5.8 mph - N/A   Clear
10:54 AM 56.7 °F - 39.4 °F 52% 30.02 in 10.0 mi WSW 6.9 mph - N/A   Clear
11:14 AM 56.7 °F - 39.2 °F 52% 30.02 in 10.0 mi West 5.8 mph - N/A   Clear
11:34 AM 57.2 °F - 39.2 °F 51% 30.03 in 10.0 mi SW 4.6 mph - N/A   Clear
11:54 AM 58.3 °F - 38.5 °F 48% 30.03 in 10.0 mi West 4.6 mph - N/A   Clear
12:15 PM 59.9 °F - 40.1 °F 48% 30.04 in 10.0 mi WSW 3.5 mph - N/A   Clear
12:34 PM 60.3 °F - 40.3 °F 48% 30.04 in 10.0 mi Calm Calm - N/A   Clear
12:54 PM 62.1 °F - 40.8 °F 46% 30.03 in 10.0 mi Calm Calm - N/A   Clear
1:15 PM 62.1 °F - 39.9 °F 44% 30.03 in 10.0 mi SSW 5.8 mph - N/A   Clear
1:34 PM 62.8 °F - 39.9 °F 43% 30.03 in 10.0 mi Calm Calm - N/A   Clear
1:54 PM 63.1 °F - 39.2 °F 41% 30.03 in 10.0 mi South 3.5 mph - N/A   Clear
2:15 PM 63.9 °F - 37.9 °F 38% 30.04 in 10.0 mi ESE 3.5 mph - N/A   Clear
2:35 PM 65.7 °F - 38.3 °F 37% 30.04 in 10.0 mi SSW 4.6 mph - N/A   Clear
2:54 PM 66.7 °F - 40.3 °F 38% 30.04 in 10.0 mi Calm Calm - N/A   Clear
3:15 PM 67.3 °F - 37.9 °F 34% 30.04 in 10.0 mi WNW 4.6 mph - N/A   Clear
3:34 PM 67.5 °F - 37.6 °F 33% 30.04 in 10.0 mi WSW 5.8 mph - N/A   Clear
3:54 PM 68.4 °F - 38.3 °F 33% 30.04 in 10.0 mi WSW 5.8 mph - N/A   Clear
4:15 PM 68.5 °F - 37.2 °F 32% 30.04 in 10.0 mi WSW 8.1 mph - N/A   Clear
4:35 PM 68.5 °F - 33.1 °F 27% 30.04 in 10.0 mi West 8.1 mph - N/A   Clear
4:54 PM 69.1 °F - 32.9 °F 26% 30.05 in 10.0 mi NW 8.1 mph - N/A   Clear
5:15 PM 69.1 °F - 32.4 °F 26% 30.06 in 10.0 mi NW 8.1 mph - N/A   Clear
5:35 PM 68.9 °F - 32.2 °F 26% 30.06 in 10.0 mi NW 5.8 mph - N/A   Clear
5:54 PM 68.5 °F - 34.3 °F 28% 30.06 in 10.0 mi WNW 4.6 mph - N/A   Clear
6:15 PM 68.2 °F - 32.7 °F 27% 30.07 in 10.0 mi WNW 8.1 mph - N/A   Clear
6:34 PM 67.5 °F - 33.3 °F 28% 30.07 in 10.0 mi WNW 6.9 mph - N/A   Clear
6:54 PM 67.3 °F - 34.0 °F 29% 30.08 in 10.0 mi WNW 5.8 mph - N/A   Clear
7:15 PM 66.2 °F - 34.7 °F 31% 30.08 in 10.0 mi WNW 8.1 mph - N/A   Clear
7:34 PM 65.5 °F - 37.2 °F 35% 30.08 in 10.0 mi WNW 10.4 mph - N/A   Clear
7:54 PM 63.9 °F - 35.1 °F 34% 30.09 in 10.0 mi WNW 6.9 mph - N/A   Clear
8:15 PM 62.4 °F - 32.4 °F 32% 30.09 in 10.0 mi WNW 6.9 mph - N/A   Clear
8:34 PM 61.0 °F - 31.6 °F 33% 30.11 in 10.0 mi WNW 5.8 mph - N/A   Clear
8:54 PM 59.0 °F - 32.0 °F 36% 30.11 in 10.0 mi WNW 4.6 mph - N/A   Clear
9:15 PM 57.2 °F - 31.1 °F 37% 30.12 in 10.0 mi WNW 3.5 mph - N/A   Clear
9:34 PM 55.8 °F - 31.6 °F 40% 30.13 in 10.0 mi Calm Calm - N/A   Clear
9:54 PM 55.0 °F - 31.1 °F 40% 30.13 in 10.0 mi Calm Calm - N/A   Clear
10:15 PM 52.2 °F - 33.1 °F 48% 30.14 in 10.0 mi Calm Calm - N/A   Clear
10:34 PM 50.0 °F - 34.3 °F 55% 30.14 in 10.0 mi Calm Calm - N/A   Clear
10:54 PM 47.8 °F - 35.1 °F 61% 30.14 in 10.0 mi Calm Calm - N/A   Clear
11:15 PM 46.6 °F - 34.7 °F 63% 30.14 in 10.0 mi Calm Calm - N/A   Clear
11:34 PM 45.7 °F - 34.5 °F 65% 30.14 in 10.0 mi Calm Calm - N/A   Clear
11:54 PM 44.6 °F - 34.2 °F 67% 30.15 in 10.0 mi Calm Calm - N/A   Clear